DELTA 1 DEB, 10761

Orbit data source: Space-Track

DELTA 1 DEB, 10761 is space debris in SSO originally from a launch on Thu, 29 Jul 1976 UTC launched from the Air Force Western Test Range (AFWTR). Debris objects in space refer to the collection of defunct objects orbiting the Earth. Examples of debris include non-operational satellites, rocket bodies, and fragments generated from explosions, collisions, or faulty payload assembly.

Loading next visibility...
Identifier
10761, 1976-077BJ
Orbit
SSO
Country
Flag of USUS
Related business
Manufacturer
Unknown
Mission
Spacecraft
Bus & Motor
Unknown
Mass
Unknown
Launch date (UTC)
1976-07-29 (49 years ago)
Launch vehicle
Unknown
Launch site
Air Force Western Test Range (AFWTR)
Object type
Payload
Rocket body
Debris
Shape & HBR
Unknown shape, 0.1 m
Radar Cross Section
Small (<0.1 m²)

Expand to show TLE details & history
Last TLE update: 1 day ago

TLE from 1 day ago
0 DELTA 1 DEB
1 10761U 76077BJ  25346.57497337  .00441476  00000-0  26272-1 0  9993
2 10761 101.3404 213.9988 0175183   0.5220 359.6141 14.97524117200804
Epoch: 2025-12-12T13:47Z
TLE epoch observation values (Epoch: 2025-12-12T13:47:57.699Z)
Latitude
Longitude
-74.50624°
Altitude
455.649 km
Speed
7.706 km/s
True Right ascension
14h 15m 59s
True Declination
0° 00' 00"
Sunlit
Object was in daylight at epoch
Visualization orbit readout
Latitude
Unknown
Longitude
Unknown
Altitude
Unknown
Speed
Unknown
Apparent Right ascension
Unknown
Apparent Declination
Unknown
Sunlit
N/A
Visualization observer readout
Local Sidereal Time
12:41:55
Azimuth
Unknown
Elevation
Unknown
Doppler factor
Unknown
Orbital elements
Apogee altitude
693.503 km
Perigee altitude
450.003 km
Semi-major axis
6,949.89 km
Eccentricity
0.01752
Inclination
101.3404°
RAAN
213.9988°
Arg. of periapsis
0.522°
True anomaly
359.60028°
Mean anomaly
359.6141°
Eccentric anomaly
359.60722°
Mean motion
3.74607 °/min
Orbital period
96.1 mins
BSTAR
0.026272
Loading maneuver chart data...
Computing Atmospheric mass density...
Loading historical data...
Loading historical data...
Loading historical data...
Loading historical data...
Loading historical data...
Loading historical data...
Loading historical data...

Documentation

Showing up to 5 results
|